This is the latest recevied weather packets stored in our database for station/object WA4ORT. If no packets are shown the sender has not sent any weather packets the latest 10 day(s).
| Time | Temp. | Humidity | Pressure | Rain* | Wind** | Luminosity | Snow |
|---|---|---|---|---|---|---|---|
| 1788385552 | 33.89° C | - | - | 0 mm | 1.34 m/s, 53° | - | - |
| 1788385477 | 33.89° C | - | - | 0 mm | 1.34 m/s, 53° | - | - |
| 1788384583 | 33.89° C | - | - | 0 mm | 0.45 m/s, 96° | - | - |
| 1788382790 | 33.89° C | - | - | 0 mm | 2.24 m/s, 316° | - | - |
| 1788381967 | 33.89° C | - | - | 0 mm | 0.45 m/s, 48° | - | - |
| 1788381896 | 33.89° C | - | - | 0 mm | 0.45 m/s, 48° | - | - |
| 1788380998 | 33.89° C | - | - | 0 mm | 0 m/s | - | - |
| 1788380104 | 33.33° C | - | - | 0 mm | 1.34 m/s, 79° | - | - |
| 1788379219 | 33.33° C | - | - | 0 mm | 1.79 m/s, 138° | - | - |
| 1788378312 | 33.89° C | - | - | 0 mm | 0.89 m/s, 41° | - | - |
| 1788377461 | 33.33° C | - | - | 0 mm | 1.34 m/s, 356° | - | - |
| 1788377434 | 33.33° C | - | - | 0 mm | 1.34 m/s, 356° | - | - |
| 1788373837 | 32.78° C | - | - | 0 mm | 1.34 m/s, 115° | - | - |
| 1788372044 | 33.89° C | - | - | 0 mm | 1.34 m/s, 23° | - | - |
| 1788371150 | 33.89° C | - | - | 0 mm | 1.34 m/s, 31° | - | - |
| 1788370253 | 33.33° C | - | - | 0 mm | 1.34 m/s, 115° | - | - |
| 1788369358 | 32.78° C | - | - | 0 mm | 1.79 m/s, 41° | - | - |
| 1788368463 | 32.78° C | - | - | 0 mm | 1.79 m/s, 4° | - | - |
| 1788367565 | 32.22° C | - | - | 0 mm | 0.89 m/s, 46° | - | - |
| 1788366671 | 32.22° C | - | - | 0 mm | 0.45 m/s, 346° | - | - |
| 1788366145 | 31.11° C | - | - | 0 mm | 1.34 m/s, 239° | - | - |
| 1788365777 | 31.11° C | - | - | 0 mm | 1.34 m/s, 239° | - | - |
| 1788364879 | 31.11° C | - | - | 0 mm | 1.79 m/s, 349° | - | - |
| 1788363985 | 31.11° C | - | - | 0 mm | 2.24 m/s, 314° | - | - |
| 1788362192 | 30° C | - | - | 0 mm | 0.89 m/s, 314° | - | - |
* Rain latest hour (hover to see other rain measurements)
** Current wind speed in m/s (hover to see current wind gust speed)